| time (UTC) | temp C | wind direction | speed KPH | gust KPH | rain 1hr cm | rain 24hr cm | rain mn cm | humidity % | barometer mb |
| 20260510204157 | 8 | 262 | 20.9 | 33.8 | 0.00 | 0.03 | 0.03 | 52 | 1014.8 |
| 20260510203657 | 8 | 281 | 19.3 | 33.8 | 0.00 | 0.03 | 0.03 | 52 | 1014.8 |
| 20260510203154 | 8 | 251 | 22.5 | 33.8 | 0.00 | 0.03 | 0.03 | 48 | 1014.6 |
| 20260510202655 | 8 | 274 | 19.3 | 29.0 | 0.00 | 0.03 | 0.03 | 48 | 1014.6 |
| 20260510202152 | 8 | 300 | 16.1 | 24.1 | 0.00 | 0.03 | 0.03 | 52 | 1014.4 |
| 20260510201655 | 8 | 282 | 12.9 | 30.6 | 0.00 | 0.03 | 0.03 | 57 | 1014.5 |
| 20260510201151 | 8 | 295 | 16.1 | 30.6 | 0.00 | 0.03 | 0.03 | 55 | 1014.5 |
| 20260510200651 | 8 | 274 | 20.9 | 30.6 | 0.00 | 0.03 | 0.03 | 53 | 1014.5 |
| 20260510200149 | 8 | 302 | 19.3 | 27.4 | 0.00 | 0.03 | 0.03 | 54 | 1014.5 |
| 20260510195650 | 8 | 303 | 12.9 | 24.1 | 0.00 | 0.03 | 0.03 | 58 | 1014.6 |
| 20260510195147 | 8 | 258 | 12.9 | 24.1 | 0.00 | 0.03 | 0.03 | 62 | 1014.5 |
| 20260510194648 | 7 | 295 | 16.1 | 24.1 | 0.00 | 0.03 | 0.03 | 59 | 1014.6 |
| 20260510194423 | 7 | 293 | 16.1 | 25.7 | 0.00 | 0.03 | 0.03 | 60 | 1014.5 |
| 20260510193646 | 7 | 322 | 19.3 | 25.7 | 0.00 | 0.03 | 0.03 | 60 | 1014.5 |
| 20260510193144 | 7 | 300 | 11.3 | 24.1 | 0.00 | 0.03 | 0.03 | 64 | 1014.5 |
| 20260510192645 | 6 | 307 | 14.5 | 25.7 | 0.00 | 0.03 | 0.03 | 67 | 1014.6 |
| 20260510192413 | 6 | 331 | 17.7 | 25.7 | 0.00 | 0.03 | 0.03 | 69 | 1014.5 |
| 20260510191644 | 6 | 258 | 11.3 | 25.7 | 0.03 | 0.03 | 0.03 | 69 | 1014.5 |
| 20260510191413 | 6 | 313 | 14.5 | 29.0 | 0.03 | 0.03 | 0.03 | 72 | 1014.6 |
| 20260510190642 | 6 | 309 | 14.5 | 33.8 | 0.03 | 0.03 | 0.03 | 72 | 1014.6 |
| 20260510190142 | 5 | 323 | 20.9 | 33.8 | 0.03 | 0.03 | 0.03 | 75 | 1014.6 |
| 20260510185639 | 5 | 315 | 14.5 | 40.2 | 0.03 | 0.03 | 0.03 | 75 | 1014.6 |
| 20260510185138 | 5 | 329 | 20.9 | 40.2 | 0.03 | 0.03 | 0.03 | 77 | 1014.6 |
| 20260510184638 | 5 | 310 | 22.5 | 38.6 | 0.03 | 0.03 | 0.03 | 74 | 1014.5 |
| 20260510184135 | 6 | 274 | 3.2 | 16.1 | 0.03 | 0.03 | 0.03 | 75 | 1014.1 |
| 20260510183645 | 6 | 268 | 11.3 | 20.9 | 0.03 | 0.03 | 0.03 | 77 | 1014.1 |
| 20260510183637 | 6 | 279 | 6.4 | 16.1 | 0.03 | 0.03 | 0.03 | 77 | 1014.1 |
| 20260510182634 | 6 | 274 | 9.7 | 25.7 | 0.03 | 0.03 | 0.03 | 77 | 1014.0 |
| 20260510182132 | 6 | 282 | 12.9 | 25.7 | 0.03 | 0.03 | 0.03 | 74 | 1013.9 |
| 20260510181634 | 6 | 260 | 16.1 | 20.9 | 0.00 | 0.00 | 0.00 | 72 | 1013.7 |
| 20260510181131 | 6 | 220 | 11.3 | 20.9 | 0.00 | 0.00 | 0.00 | 74 | 1013.6 |
| 20260510180904 | 6 | 302 | 14.5 | 20.9 | 0.00 | 0.00 | 0.00 | 74 | 1013.6 |
| 20260510180131 | 6 | 239 | 9.7 | 32.2 | 0.00 | 0.00 | 0.00 | 80 | 1013.7 |
| 20260510175630 | 6 | 230 | 9.7 | 32.2 | 0.00 | 0.00 | 0.00 | 75 | 1013.6 |
| 20260510175358 | 6 | 260 | 22.5 | 32.2 | 0.00 | 0.00 | 0.00 | 69 | 1013.7 |
| 20260510174637 | 7 | 241 | 12.9 | 20.9 | 0.00 | 0.00 | 0.00 | 69 | 1013.3 |
| 20260510174629 | 6 | 241 | 16.1 | 25.7 | 0.00 | 0.00 | 0.00 | 66 | 1013.5 |
| 20260510173626 | 7 | 286 | 16.1 | 17.7 | 0.00 | 0.00 | 0.00 | 66 | 1013.3 |
| 20260510173124 | 7 | 257 | 9.7 | 16.1 | 0.00 | 0.00 | 0.00 | 67 | 1013.3 |
| 20260510172625 | 7 | 251 | 9.7 | 16.1 | 0.00 | 0.00 | 0.00 | 71 | 1013.2 |
| 20260510172123 | 6 | 250 | 9.7 | 16.1 | 0.00 | 0.00 | 0.00 | 71 | 1013.3 |
| 20260510171623 | 6 | 251 | 6.4 | 17.7 | 0.00 | 0.00 | 0.00 | 73 | 1013.3 |
| 20260510171120 | 6 | 202 | 11.3 | 17.7 | 0.00 | 0.00 | 0.00 | 72 | 1013.4 |
| 20260510170622 | 6 | 215 | 12.9 | 24.1 | 0.00 | 0.00 | 0.00 | 71 | 1013.4 |
| 20260510170119 | 6 | 302 | 9.7 | 24.1 | 0.00 | 0.00 | 0.00 | 71 | 1013.4 |
| 20260510165620 | 6 | 232 | 11.3 | 22.5 | 0.00 | 0.00 | 0.00 | 71 | 1013.4 |
| 20260510165350 | 6 | 293 | 4.8 | 17.7 | 0.00 | 0.00 | 0.00 | 70 | 1013.3 |
| 20260510164620 | 6 | 341 | 9.7 | 17.7 | 0.00 | 0.00 | 0.00 | 70 | 1013.2 |
| 20260510164116 | 6 | 331 | 9.7 | 17.7 | 0.00 | 0.00 | 0.00 | 69 | 1013.2 |
| 20260510163618 | 6 | 1 | 9.7 | 16.1 | 0.00 | 0.00 | 0.00 | 68 | 1013.2 |
| 20260510163117 | 7 | 338 | 9.7 | 14.5 | 0.00 | 0.00 | 0.00 | 68 | 1013.1 |
| 20260510162616 | 7 | 300 | 9.7 | 20.9 | 0.00 | 0.00 | 0.00 | 64 | 1013.0 |
| 20260510162112 | 7 | 225 | 9.7 | 24.1 | 0.00 | 0.00 | 0.00 | 66 | 1012.9 |
| 20260510161612 | 6 | 230 | 14.5 | 29.0 | 0.00 | 0.00 | 0.00 | 70 | 1012.9 |
| 20260510161111 | 6 | 215 | 16.1 | 33.8 | 0.00 | 0.00 | 0.00 | 67 | 1012.9 |
| 20260510160611 | 6 | 247 | 22.5 | 33.8 | 0.00 | 0.00 | 0.00 | 68 | 1012.8 |
| 20260510160109 | 7 | 253 | 22.5 | 32.2 | 0.00 | 0.00 | 0.00 | 64 | 1012.9 |
| 20260510155611 | 7 | 272 | 16.1 | 24.1 | 0.00 | 0.00 | 0.00 | 57 | 1012.8 |
| 20260510155340 | 7 | 262 | 16.1 | 24.1 | 0.00 | 0.00 | 0.00 | 54 | 1012.8 |
| 20260510154609 | 7 | 270 | 17.7 | 22.5 | 0.00 | 0.00 | 0.00 | 57 | 1012.7 |
| 20260510154107 | 7 | 255 | 14.5 | 20.9 | 0.00 | 0.00 | 0.00 | 58 | 1012.7 |
| 20260510153841 | 7 | 319 | 12.9 | 20.9 | 0.00 | 0.00 | 0.00 | 57 | 1012.7 |
| 20260510153105 | 7 | 305 | 12.9 | 27.4 | 0.00 | 0.00 | 0.00 | 61 | 1012.6 |
| 20260510152608 | 6 | 295 | 14.5 | 27.4 | 0.00 | 0.00 | 0.00 | 62 | 1012.6 |
| 20260510152106 | 6 | 265 | 17.7 | 25.7 | 0.00 | 0.00 | 0.00 | 56 | 1012.5 |
| 20260510151604 | 6 | 319 | 14.5 | 25.7 | 0.00 | 0.00 | 0.00 | 59 | 1012.5 |
| 20260510151103 | 7 | 324 | 8.0 | 25.7 | 0.00 | 0.00 | 0.00 | 58 | 1012.5 |
| 20260510150604 | 6 | 307 | 11.3 | 27.4 | 0.00 | 0.00 | 0.00 | 62 | 1012.5 |
| 20260510150105 | 6 | 284 | 19.3 | 27.4 | 0.00 | 0.00 | 0.00 | 61 | 1012.4 |
| 20260510145600 | 6 | 310 | 14.5 | 25.7 | 0.00 | 0.00 | 0.00 | 61 | 1012.4 |
| 20260510145057 | 7 | 284 | 14.5 | 24.1 | 0.00 | 0.00 | 0.00 | 65 | 1012.3 |
| 20260510144558 | 6 | 317 | 16.1 | 24.1 | 0.00 | 0.00 | 0.00 | 62 | 1012.2 |
| 20260510144055 | 6 | 289 | 14.5 | 22.5 | 0.00 | 0.00 | 0.00 | 64 | 1012.2 |
| 20260510143829 | 6 | 262 | 11.3 | 22.5 | 0.00 | 0.00 | 0.00 | 66 | 1012.1 |
| 20260510143054 | 6 | 303 | 14.5 | 24.1 | 0.00 | 0.00 | 0.00 | 64 | 1012.1 |
| 20260510142557 | 6 | 288 | 14.5 | 24.1 | 0.00 | 0.00 | 0.00 | 66 | 1012.1 |
| 20260510142052 | 6 | 250 | 11.3 | 22.5 | 0.00 | 0.00 | 0.00 | 69 | 1012.0 |
| 20260510141825 | 6 | 286 | 11.3 | 22.5 | 0.00 | 0.00 | 0.00 | 68 | 1012.0 |
| 20260510141727 | 6 | 285 | 4.8 | 22.5 | 0.00 | 0.00 | 0.00 | 69 | 1011.9 |
| 20260510140555 | 6 | 265 | 14.5 | 20.9 | 0.00 | 0.00 | 0.00 | 68 | 1011.9 |
| 20260510140101 | 6 | 292 | 14.5 | 27.4 | 0.00 | 0.00 | 0.00 | 71 | 1011.7 |
| 20260510135551 | 5 | 336 | 14.5 | 27.4 | 0.00 | 0.00 | 0.00 | 70 | 1011.7 |
| 20260510135048 | 6 | 271 | 12.9 | 25.7 | 0.00 | 0.00 | 0.00 | 73 | 1011.6 |
| 20260510134602 | 5 | 272 | 12.9 | 25.7 | 0.00 | 0.00 | 0.00 | 72 | 1011.6 |
| 20260510134047 | 6 | 278 | 9.7 | 22.5 | 0.00 | 0.00 | 0.00 | 72 | 1011.6 |
| 20260510133547 | 5 | 324 | 6.4 | 22.5 | 0.00 | 0.00 | 0.00 | 75 | 1011.6 |
| 20260510133045 | 5 | 291 | 17.7 | 22.5 | 0.00 | 0.00 | 0.00 | 76 | 1011.5 |
| 20260510132546 | 5 | 306 | 8.0 | 22.5 | 0.00 | 0.00 | 0.00 | 76 | 1011.5 |
| 20260510132043 | 5 | 267 | 14.5 | 22.5 | 0.00 | 0.00 | 0.00 | 77 | 1011.4 |
| 20260510131545 | 5 | 292 | 8.0 | 17.7 | 0.00 | 0.00 | 0.00 | 78 | 1011.4 |
| 20260510131041 | 5 | 306 | 11.3 | 17.7 | 0.00 | 0.00 | 0.00 | 76 | 1011.5 |
| 20260510130543 | 5 | 300 | 12.9 | 22.5 | 0.00 | 0.00 | 0.00 | 76 | 1011.4 |
| 20260510130052 | 5 | 288 | 12.9 | 22.5 | 0.00 | 0.00 | 0.00 | 79 | 1011.3 |
| 20260510125544 | 5 | 295 | 11.3 | 20.9 | 0.00 | 0.00 | 0.00 | 79 | 1011.2 |
| 20260510125040 | 5 | 307 | 11.3 | 20.9 | 0.00 | 0.00 | 0.00 | 78 | 1011.2 |
| 20260510124539 | 5 | 312 | 9.7 | 20.9 | 0.00 | 0.00 | 0.00 | 78 | 1011.1 |
| 20260510124309 | 5 | 303 | 11.3 | 20.9 | 0.00 | 0.00 | 0.00 | 80 | 1011.1 |
| 20260510123538 | 5 | 306 | 12.9 | 20.9 | 0.00 | 0.00 | 0.00 | 79 | 1011.0 |
| 20260510123306 | 4 | 306 | 11.3 | 20.9 | 0.00 | 0.00 | 0.00 | 80 | 1011.0 |
| 20260510122807 | 4 | 291 | 14.5 | 20.9 | 0.00 | 0.00 | 0.00 | 79 | 1011.0 |
| 20260510122031 | 5 | 288 | 9.7 | 22.5 | 0.00 | 0.00 | 0.00 | 81 | 1010.9 |
| 20260510121531 | 4 | 285 | 11.3 | 24.1 | 0.00 | 0.00 | 0.00 | 80 | 1010.9 |
| 20260510121029 | 4 | 286 | 14.5 | 24.1 | 0.00 | 0.00 | 0.00 | 80 | 1010.9 |
| 20260510120532 | 4 | 316 | 12.9 | 20.9 | 0.00 | 0.00 | 0.00 | 81 | 1010.8 |
| 20260510120029 | 4 | 300 | 12.9 | 20.9 | 0.00 | 0.00 | 0.00 | 83 | 1010.8 |
| 20260510115529 | 4 | 278 | 9.7 | 20.9 | 0.00 | 0.00 | 0.00 | 84 | 1010.8 |
| 20260510115028 | 3 | 289 | 8.0 | 17.7 | 0.00 | 0.00 | 0.00 | 84 | 1010.6 |
| 20260510114527 | 3 | 286 | 9.7 | 20.9 | 0.00 | 0.00 | 0.00 | 84 | 1010.5 |
| 20260510114024 | 3 | 320 | 11.3 | 20.9 | 0.00 | 0.00 | 0.00 | 84 | 1010.4 |
| 20260510113526 | 3 | 305 | 11.3 | 24.1 | 0.00 | 0.00 | 0.00 | 84 | 1010.3 |
| 20260510113024 | 3 | 302 | 14.5 | 24.1 | 0.00 | 0.00 | 0.00 | 84 | 1010.2 |
| 20260510112524 | 3 | 317 | 16.1 | 27.4 | 0.00 | 0.00 | 0.00 | 85 | 1010.2 |
| 20260510112021 | 3 | 282 | 12.9 | 27.4 | 0.00 | 0.00 | 0.00 | 87 | 1010.2 |
| 20260510111530 | 3 | 279 | 11.3 | 19.3 | 0.00 | 0.00 | 0.00 | 90 | 1010.0 |
| 20260510111522 | 3 | 284 | 17.7 | 25.7 | 0.00 | 0.00 | 0.00 | 87 | 1010.0 |
| 20260510110520 | 3 | 306 | 12.9 | 16.1 | 0.00 | 0.00 | 0.00 | 91 | 1009.9 |
| 20260510110019 | 3 | 271 | 12.9 | 16.1 | 0.00 | 0.00 | 0.00 | 91 | 1009.7 |
| 20260510105519 | 3 | 253 | 8.0 | 19.3 | 0.00 | 0.00 | 0.00 | 91 | 1009.6 |
| 20260510105016 | 3 | 267 | 6.4 | 20.9 | 0.00 | 0.00 | 0.00 | 91 | 1009.5 |
| 20260510104517 | 3 | 262 | 14.5 | 20.9 | 0.00 | 0.00 | 0.00 | 91 | 1009.3 |
| 20260510104016 | 3 | 261 | 14.5 | 20.9 | 0.00 | 0.00 | 0.00 | 91 | 1009.1 |
| 20260510103515 | 3 | 278 | 9.7 | 20.9 | 0.00 | 0.00 | 0.00 | 91 | 1009.0 |
| 20260510103012 | 3 | 268 | 8.0 | 17.7 | 0.00 | 0.00 | 0.00 | 90 | 1008.9 |
| 20260510102514 | 3 | 261 | 12.9 | 17.7 | 0.00 | 0.00 | 0.00 | 90 | 1008.8 |
| 20260510102014 | 3 | 225 | 11.3 | 17.7 | 0.00 | 0.00 | 0.00 | 90 | 1008.7 |
| 20260510101512 | 3 | 284 | 12.9 | 25.7 | 0.00 | 0.00 | 0.00 | 90 | 1008.5 |
| 20260510101240 | 3 | 288 | 14.5 | 25.7 | 0.00 | 0.00 | 0.00 | 90 | 1008.4 |
| 20260510100510 | 3 | 295 | 16.1 | 22.5 | 0.00 | 0.00 | 0.00 | 90 | 1008.2 |
| 20260510100008 | 3 | 274 | 11.3 | 17.7 | 0.00 | 0.00 | 0.00 | 90 | 1008.1 |
| 20260510095510 | 3 | 291 | 9.7 | 17.7 | 0.00 | 0.00 | 0.00 | 90 | 1008.1 |
| 20260510095006 | 3 | 286 | 9.7 | 20.9 | 0.00 | 0.00 | 0.00 | 90 | 1008.0 |
| 20260510094508 | 3 | 284 | 11.3 | 20.9 | 0.00 | 0.00 | 0.00 | 90 | 1007.9 |
| 20260510094006 | 3 | 268 | 11.3 | 19.3 | 0.00 | 0.00 | 0.00 | 90 | 1007.8 |
| 20260510093507 | 3 | 285 | 9.7 | 22.5 | 0.00 | 0.00 | 0.00 | 89 | 1007.7 |
| 20260510093002 | 3 | 295 | 9.7 | 22.5 | 0.00 | 0.00 | 0.00 | 89 | 1007.8 |
| 20260510092505 | 3 | 285 | 16.1 | 24.1 | 0.00 | 0.00 | 0.00 | 89 | 1007.8 |
| 20260510092001 | 3 | 292 | 11.3 | 24.1 | 0.00 | 0.00 | 0.00 | 89 | 1007.8 |
| 20260510091501 | 3 | 329 | 11.3 | 24.1 | 0.00 | 0.00 | 0.00 | 90 | 1007.6 |
| 20260510091001 | 3 | 289 | 9.7 | 24.1 | 0.00 | 0.00 | 0.00 | 90 | 1007.5 |
| 20260510090502 | 3 | 286 | 12.9 | 20.9 | 0.00 | 0.00 | 0.00 | 90 | 1007.5 |
| 20260510085959 | 3 | 299 | 12.9 | 20.9 | 0.00 | 0.00 | 0.00 | 90 | 1007.4 |
| 20260510085458 | 3 | 295 | 12.9 | 17.7 | 0.00 | 0.00 | 0.00 | 90 | 1007.3 |
| 20260510085226 | 3 | 265 | 9.7 | 17.7 | 0.00 | 0.00 | 0.00 | 90 | 1007.2 |
| 20260510084457 | 3 | 267 | 9.7 | 16.1 | 0.00 | 0.00 | 0.00 | 90 | 1007.2 |
| 20260510083956 | 3 | 284 | 11.3 | 20.9 | 0.00 | 0.00 | 0.00 | 90 | 1007.1 |
| 20260510083455 | 3 | 284 | 9.7 | 20.9 | 0.00 | 0.00 | 0.00 | 90 | 1007.1 |
| 20260510082954 | 3 | 285 | 8.0 | 16.1 | 0.00 | 0.00 | 0.00 | 91 | 1007.0 |
| 20260510082453 | 3 | 293 | 11.3 | 17.7 | 0.00 | 0.00 | 0.00 | 90 | 1006.9 |
| 20260510082223 | 3 | 298 | 9.7 | 17.7 | 0.00 | 0.00 | 0.00 | 90 | 1006.9 |
| 20260510081453 | 3 | 241 | 8.0 | 20.9 | 0.00 | 0.00 | 0.00 | 89 | 1006.8 |
| 20260510080950 | 3 | 293 | 12.9 | 20.9 | 0.00 | 0.00 | 0.00 | 89 | 1006.6 |
| 20260510080502 | 3 | 302 | 11.3 | 17.7 | 0.00 | 0.00 | 0.00 | 89 | 1006.6 |
| 20260510075947 | 3 | 292 | 11.3 | 17.7 | 0.00 | 0.00 | 0.00 | 89 | 1006.5 |
| 20260510075450 | 3 | 281 | 14.5 | 19.3 | 0.00 | 0.00 | 0.00 | 89 | 1006.4 |
| 20260510074949 | 3 | 268 | 14.5 | 19.3 | 0.00 | 0.00 | 0.00 | 89 | 1006.3 |
| 20260510074449 | 3 | 291 | 14.5 | 19.3 | 0.00 | 0.00 | 0.00 | 89 | 1006.3 |
| 20260510073945 | 3 | 285 | 9.7 | 20.9 | 0.00 | 0.00 | 0.00 | 89 | 1006.3 |
| 20260510073446 | 3 | 310 | 9.7 | 20.9 | 0.00 | 0.00 | 0.00 | 89 | 1006.1 |
| 20260510072943 | 3 | 268 | 9.7 | 19.3 | 0.00 | 0.00 | 0.00 | 90 | 1006.1 |
| 20260510072715 | 3 | 293 | 12.9 | 19.3 | 0.00 | 0.00 | 0.00 | 90 | 1006.0 |
| 20260510071941 | 3 | 320 | 8.0 | 20.9 | 0.00 | 0.00 | 0.00 | 90 | 1005.9 |
| 20260510071442 | 3 | 292 | 14.5 | 24.1 | 0.00 | 0.00 | 0.00 | 90 | 1005.9 |
| 20260510070939 | 3 | 274 | 14.5 | 24.1 | 0.00 | 0.00 | 0.00 | 90 | 1005.9 |
| 20260510070441 | 3 | 289 | 11.3 | 25.7 | 0.00 | 0.00 | 0.00 | 91 | 1005.8 |
| 20260510065938 | 3 | 296 | 16.1 | 25.7 | 0.00 | 0.00 | 0.00 | 91 | 1005.8 |
| 20260510065438 | 3 | 284 | 11.3 | 20.9 | 0.00 | 0.00 | 0.00 | 91 | 1005.8 |
| 20260510064936 | 3 | 284 | 14.5 | 19.3 | 0.00 | 0.00 | 0.00 | 91 | 1005.7 |
| 20260510064437 | 3 | 315 | 9.7 | 22.5 | 0.00 | 0.00 | 0.00 | 91 | 1005.6 |
| 20260510063935 | 3 | 306 | 12.9 | 24.1 | 0.00 | 0.00 | 0.00 | 91 | 1005.5 |
| 20260510063438 | 3 | 285 | 17.7 | 24.1 | 0.00 | 0.00 | 0.00 | 90 | 1005.5 |
| 20260510063204 | 3 | 295 | 16.1 | 29.0 | 0.00 | 0.00 | 0.00 | 90 | 1005.4 |
| 20260510062435 | 3 | 270 | 16.1 | 29.0 | 0.00 | 0.00 | 0.00 | 90 | 1005.4 |
| 20260510061931 | 3 | 271 | 14.5 | 29.0 | 0.00 | 0.00 | 0.00 | 90 | 1005.3 |
| 20260510061432 | 3 | 272 | 19.3 | 29.0 | 0.00 | 0.00 | 0.00 | 90 | 1005.3 |
| 20260510060930 | 4 | 261 | 16.1 | 24.1 | 0.00 | 0.00 | 0.00 | 90 | 1005.2 |
| 20260510060431 | 3 | 271 | 14.5 | 20.9 | 0.00 | 0.00 | 0.00 | 91 | 1005.2 |
| 20260510055927 | 4 | 275 | 16.1 | 20.9 | 0.00 | 0.00 | 0.00 | 91 | 1005.1 |
| 20260510055429 | 3 | 302 | 12.9 | 24.1 | 0.00 | 0.00 | 0.00 | 91 | 1005.0 |
| 20260510054926 | 4 | 289 | 16.1 | 24.1 | 0.00 | 0.00 | 0.00 | 91 | 1004.9 |
| 20260510054659 | 4 | 240 | 11.3 | 19.3 | 0.00 | 0.00 | 0.00 | 90 | 1004.9 |
| 20260510053924 | 4 | 278 | 12.9 | 24.1 | 0.00 | 0.00 | 0.00 | 90 | 1004.8 |
| 20260510053427 | 4 | 258 | 11.3 | 24.1 | 0.00 | 0.00 | 0.00 | 90 | 1004.6 |
| 20260510052935 | 4 | 288 | 11.3 | 27.4 | 0.00 | 0.00 | 0.00 | 90 | 1004.4 |
| 20260510052923 | 4 | 295 | 16.1 | 24.1 | 0.00 | 0.00 | 0.00 | 90 | 1004.5 |
| 20260510051925 | 4 | 277 | 14.5 | 30.6 | 0.00 | 0.00 | 0.00 | 89 | 1004.3 |
| 20260510051423 | 4 | 303 | 12.9 | 32.2 | 0.00 | 0.00 | 0.00 | 89 | 1004.2 |
| 20260510050919 | 4 | 285 | 20.9 | 32.2 | 0.00 | 0.00 | 0.00 | 89 | 1004.1 |
| 20260510050421 | 4 | 300 | 19.3 | 30.6 | 0.00 | 0.00 | 0.00 | 90 | 1004.0 |
| 20260510050149 | 4 | 330 | 22.5 | 30.6 | 0.00 | 0.00 | 0.00 | 89 | 1003.9 |
| 20260510045419 | 5 | 289 | 19.3 | 30.6 | 0.00 | 0.00 | 0.00 | 90 | 1003.8 |
| 20260510044916 | 5 | 274 | 14.5 | 29.0 | 0.00 | 0.00 | 0.00 | 90 | 1003.7 |
| 20260510044417 | 5 | 319 | 12.9 | 29.0 | 0.00 | 0.00 | 0.00 | 90 | 1003.6 |
| 20260510043914 | 5 | 288 | 14.5 | 32.2 | 0.00 | 0.00 | 0.00 | 90 | 1003.4 |
| 20260510043416 | 5 | 284 | 14.5 | 32.2 | 0.00 | 0.00 | 0.00 | 91 | 1003.3 |
| 20260510042914 | 5 | 277 | 17.7 | 30.6 | 0.00 | 0.00 | 0.00 | 91 | 1003.3 |
| 20260510042414 | 5 | 312 | 12.9 | 30.6 | 0.00 | 0.00 | 0.00 | 91 | 1003.2 |
| 20260510041911 | 5 | 300 | 17.7 | 30.6 | 0.00 | 0.00 | 0.00 | 91 | 1003.2 |
| 20260510041412 | 5 | 309 | 16.1 | 27.4 | 0.00 | 0.00 | 0.00 | 91 | 1003.0 |
| 20260510040909 | 5 | 292 | 16.1 | 27.4 | 0.00 | 0.00 | 0.00 | 92 | 1002.9 |
| 20260510040413 | 5 | 307 | 11.3 | 27.4 | 0.00 | 0.00 | 0.00 | 92 | 1002.8 |
| 20260510035923 | 5 | 305 | 16.1 | 29.0 | 0.00 | 0.79 | 0.79 | 92 | 1002.8 |
| 20260510035653 | 5 | 288 | 14.5 | 27.4 | 0.00 | 0.79 | 0.79 | 92 | 1002.6 |
| 20260510034922 | 5 | 261 | 12.9 | 22.5 | 0.00 | 0.79 | 0.79 | 92 | 1002.6 |
| 20260510034654 | 5 | 253 | 14.5 | 24.1 | 0.00 | 0.79 | 0.79 | 92 | 1002.4 |
| 20260510034153 | 5 | 282 | 16.1 | 24.1 | 0.00 | 0.79 | 0.79 | 91 | 1002.3 |
| 20260510034057 | 5 | 267 | 16.1 | 25.7 | 0.00 | 0.79 | 0.79 | 91 | 1002.3 |
| 20260510032918 | 5 | 285 | 14.5 | 25.7 | 0.00 | 0.79 | 0.79 | 91 | 1002.2 |
| 20260510032418 | 5 | 262 | 19.3 | 24.1 | 0.00 | 0.79 | 0.79 | 90 | 1002.1 |
| 20260510031929 | 5 | 270 | 14.5 | 25.7 | 0.00 | 0.79 | 0.79 | 90 | 1002.1 |
| 20260510031415 | 5 | 274 | 11.3 | 25.7 | 0.00 | 0.79 | 0.79 | 90 | 1002.0 |
| 20260510030918 | 6 | 265 | 11.3 | 25.7 | 0.00 | 0.79 | 0.79 | 91 | 1001.9 |
| 20260510030415 | 5 | 277 | 14.5 | 27.4 | 0.00 | 0.79 | 0.79 | 91 | 1001.8 |
| 20260510030145 | 5 | 246 | 17.7 | 27.4 | 0.00 | 0.79 | 0.79 | 92 | 1001.8 |
| 20260510030045 | 5 | 264 | 16.1 | 27.4 | 0.00 | 0.79 | 0.79 | 94 | 1001.6 |
| 20260510024912 | 5 | 258 | 12.9 | 17.7 | 0.00 | 0.79 | 0.79 | 94 | 1001.6 |
| 20260510024411 | 5 | 257 | 11.3 | 16.1 | 0.00 | 0.79 | 0.79 | 94 | 1001.5 |
| 20260510023911 | 6 | 267 | 6.4 | 12.9 | 0.00 | 0.79 | 0.79 | 94 | 1001.5 |
| 20260510023409 | 6 | 254 | 9.7 | 12.9 | 0.00 | 0.79 | 0.79 | 94 | 1001.5 |
| 20260510022909 | 6 | 261 | 6.4 | 12.9 | 0.00 | 0.79 | 0.79 | 94 | 1001.5 |
| 20260510022408 | 6 | 219 | 8.0 | 12.9 | 0.00 | 0.79 | 0.79 | 94 | 1001.5 |
| 20260510021908 | 6 | 261 | 6.4 | 12.9 | 0.00 | 0.79 | 0.79 | 94 | 1001.3 |
| 20260510021405 | 6 | 247 | 8.0 | 12.9 | 0.00 | 0.79 | 0.79 | 94 | 1001.2 |
| 20260510020905 | 6 | 257 | 6.4 | 12.9 | 0.00 | 0.79 | 0.79 | 94 | 1001.1 |
| 20260510020637 | 6 | 251 | 6.4 | 12.9 | 0.00 | 0.79 | 0.79 | 94 | 1001.0 |
| 20260510015903 | 6 | 274 | 8.0 | 12.9 | 0.03 | 0.79 | 0.79 | 94 | 1001.0 |
| 20260510015403 | 6 | 243 | 4.8 | 11.3 | 0.03 | 0.79 | 0.79 | 94 | 1001.0 |
| 20260510014902 | 6 | 270 | 6.4 | 11.3 | 0.03 | 0.79 | 0.79 | 94 | 1000.9 |
| 20260510014401 | 6 | 227 | 8.0 | 11.3 | 0.03 | 0.79 | 0.79 | 93 | 1000.8 |
| 20260510013901 | 6 | 264 | 4.8 | 9.7 | 0.03 | 0.79 | 0.79 | 93 | 1000.5 |
| 20260510013357 | 6 | 278 | 6.4 | 9.7 | 0.03 | 0.79 | 0.79 | 93 | 1000.6 |
| 20260510012854 | 6 | 299 | 4.8 | 14.5 | 0.05 | 0.79 | 0.79 | 93 | 1000.6 |
| 20260510012624 | 6 | 286 | 11.3 | 17.7 | 0.05 | 0.79 | 0.79 | 93 | 1000.5 |
| 20260510012122 | 6 | 278 | 11.3 | 17.7 | 0.05 | 0.79 | 0.79 | 93 | 1000.5 |
| 20260510012020 | 6 | 279 | 8.0 | 12.9 | 0.05 | 0.79 | 0.79 | 93 | 1000.3 |
| 20260510010851 | 6 | 279 | 6.4 | 12.9 | 0.05 | 0.79 | 0.79 | 92 | 1000.0 |
| 20260510010351 | 6 | 310 | 3.2 | 16.1 | 0.05 | 0.79 | 0.79 | 92 | 999.9 |
| 20260510005850 | 6 | 286 | 6.4 | 20.9 | 0.03 | 0.76 | 0.76 | 92 | 999.9 |
| 20260510005349 | 6 | 298 | 11.3 | 20.9 | 0.03 | 0.76 | 0.76 | 92 | 999.9 |
| 20260510004847 | 6 | 291 | 9.7 | 29.0 | 0.03 | 0.76 | 0.76 | 92 | 999.8 |
| 20260510004348 | 6 | 313 | 17.7 | 40.2 | 0.03 | 0.76 | 0.76 | 92 | 999.8 |
| 20260510004121 | 6 | 285 | 16.1 | 40.2 | 0.05 | 0.76 | 0.76 | 93 | 999.7 |
| 20260510003347 | 6 | 288 | 17.7 | 38.6 | 0.03 | 0.74 | 0.76 | 93 | 999.6 |
| 20260510002846 | 6 | 305 | 14.5 | 25.7 | 0.03 | 0.74 | 0.74 | 95 | 999.5 |
| 20260510002344 | 6 | 282 | 8.0 | 14.5 | 0.05 | 0.74 | 0.74 | 95 | 999.1 |
| 20260510001842 | 6 | 225 | 6.4 | 14.5 | 0.08 | 0.74 | 0.74 | 95 | 998.8 |
| 20260510001343 | 6 | 254 | 6.4 | 11.3 | 0.10 | 0.74 | 0.74 | 95 | 998.6 |
| 20260510001113 | 6 | 201 | 6.4 | 11.3 | 0.15 | 0.74 | 0.74 | 95 | 998.5 |
| 20260510000341 | 6 | 217 | 4.8 | 11.3 | 0.23 | 0.74 | 0.74 | 95 | 998.4 |
| 20260509235840 | 6 | 253 | 3.2 | 11.3 | 0.23 | 0.74 | 0.74 | 95 | 998.5 |
| 20260509235338 | 6 | 225 | 6.4 | 14.5 | 0.23 | 0.74 | 0.74 | 95 | 998.4 |
| 20260509234839 | 6 | 282 | 3.2 | 14.5 | 0.23 | 0.74 | 0.74 | 95 | 998.4 |
| 20260509234338 | 6 | 243 | 8.0 | 20.9 | 0.25 | 0.74 | 0.74 | 94 | 998.6 |
| 20260509233837 | 6 | 274 | 9.7 | 25.7 | 0.23 | 0.71 | 0.71 | 94 | 998.6 |
| 20260509233336 | 6 | 267 | 12.9 | 25.7 | 0.23 | 0.71 | 0.71 | 94 | 998.4 |
| 20260509232838 | 6 | 277 | 14.5 | 30.6 | 0.23 | 0.71 | 0.71 | 94 | 998.5 |
| 20260509232333 | 6 | 295 | 16.1 | 49.9 | 0.20 | 0.69 | 0.69 | 94 | 998.4 |
| 20260509231833 | 6 | 277 | 16.1 | 49.9 | 0.18 | 0.66 | 0.66 | 93 | 998.6 |
| 20260509231607 | 7 | 250 | 27.4 | 48.3 | 0.15 | 0.64 | 0.64 | 93 | 998.8 |
| 20260509230832 | 8 | 285 | 22.5 | 33.8 | 0.13 | 0.58 | 0.58 | 95 | 998.6 |
| 20260509230601 | 8 | 246 | 16.1 | 25.7 | 0.05 | 0.51 | 0.51 | 95 | 997.7 |
| 20260509230502 | 8 | 222 | 11.3 | 22.5 | 0.05 | 0.51 | 0.51 | 95 | 997.6 |
| 20260509225331 | 8 | 229 | 12.9 | 22.5 | 0.05 | 0.51 | 0.51 | 95 | 997.5 |
| 20260509224828 | 8 | 254 | 8.0 | 22.5 | 0.05 | 0.51 | 0.51 | 95 | 997.4 |
| 20260509224328 | 8 | 267 | 11.3 | 25.7 | 0.03 | 0.48 | 0.48 | 95 | 997.3 |
| 20260509223827 | 8 | 248 | 11.3 | 25.7 | 0.03 | 0.48 | 0.48 | 95 | 997.2 |
| 20260509223325 | 8 | 253 | 17.7 | 25.7 | 0.03 | 0.48 | 0.48 | 95 | 997.1 |
| 20260509222826 | 8 | 261 | 12.9 | 22.5 | 0.03 | 0.48 | 0.48 | 95 | 997.0 |
| 20260509222324 | 8 | 264 | 14.5 | 20.9 | 0.03 | 0.48 | 0.48 | 95 | 996.9 |
| 20260509221824 | 8 | 230 | 12.9 | 19.3 | 0.05 | 0.48 | 0.48 | 95 | 996.9 |
| 20260509221340 | 8 | 248 | 11.3 | 19.3 | 0.08 | 0.48 | 0.48 | 95 | 996.8 |
| 20260509220821 | 8 | 257 | 6.4 | 14.5 | 0.05 | 0.46 | 0.46 | 95 | 996.7 |
| 20260509220555 | 8 | 271 | 6.4 | 14.5 | 0.05 | 0.46 | 0.46 | 95 | 996.7 |
| 20260509215821 | 8 | 257 | 9.7 | 14.5 | 0.05 | 0.46 | 0.46 | 95 | 996.6 |
| 20260509215320 | 8 | 241 | 6.4 | 9.7 | 0.08 | 0.46 | 0.46 | 94 | 996.4 |
| 20260509214819 | 8 | 244 | 6.4 | 9.7 | 0.08 | 0.46 | 0.46 | 94 | 996.4 |
| 20260509214320 | 8 | 243 | 0.0 | 11.3 | 0.08 | 0.46 | 0.46 | 94 | 996.2 |
| 20260509213815 | 8 | 265 | 6.4 | 11.3 | 0.08 | 0.46 | 0.46 | 94 | 996.4 |
| 20260509213314 | 8 | 271 | 6.4 | 17.7 | 0.08 | 0.46 | 0.46 | 94 | 996.3 |
| 20260509213043 | 8 | 220 | 3.2 | 17.7 | 0.08 | 0.46 | 0.46 | 93 | 996.4 |
| 20260509212311 | 8 | 199 | 6.4 | 17.7 | 0.08 | 0.46 | 0.46 | 93 | 996.5 |
| 20260509211811 | 8 | 239 | 6.4 | 9.7 | 0.05 | 0.43 | 0.43 | 93 | 996.5 |
| 20260509211545 | 8 | 225 | 0.0 | 8.0 | 0.03 | 0.41 | 0.41 | 93 | 996.6 |
| 20260509210801 | 8 | 215 | 1.6 | 9.7 | 0.03 | 0.41 | 0.41 | 93 | 996.5 |
| 20260509210306 | 8 | 202 | 0.0 | 14.5 | 0.03 | 0.41 | 0.41 | 93 | 996.6 |
| 20260509205749 | 8 | 240 | 1.6 | 14.5 | 0.03 | 0.41 | 0.41 | 93 | 996.5 |
| 20260509205249 | 8 | 120 | 3.2 | 12.9 | 0.00 | 0.38 | 0.38 | 92 | 996.5 |
| 20260509204758 | 8 | 143 | 0.0 | 9.7 | 0.00 | 0.38 | 0.38 | 93 | 996.5 |
| 20260509204750 | 8 | 253 | 0.0 | 8.0 | 0.00 | 0.38 | 0.38 | 93 | 996.5 |